Back to catalog

PSLV R/B

AliveHEO
NORAD 40270·ROCKET BODY·🇮🇳 India

Launched Oct 15, 2014 from Satish Dhawan Space Centre

Loading…

Next Passes (next 24 hours)

TLE

FreshSource: Space-Track

Epoch: Sep 14, 2026, 09:06 UTC

1 40270U 14061B   26257.37975307  .00009960  00000-0  93818-3 0  9994
2 40270  17.7107 207.3190 5733904 137.8231 284.4934  4.48260101180971

Track PSLV R/B in real time with AllMySat

Download on the App Store